Location: Cahas Mountain Overlook
(37.0833°N, 80.1000°W)
Time: 14:58:51
(UTC-05:00)

Transit 2A Rocket - Visible Passes

Search period start: 25 January 2022 00:00
Search period end: 04 February 2022 00:00
Orbit: 584 x 917 km, 66.7° (Epoch: 25 January)

Date Brightness Start Highest point End Pass type
(mag) Time Alt. Az. Time Alt. Az. Time Alt. Az.
25 Jan 5.6 18:14:24 10° S 18:20:10 52° ESE 18:26:06 10° NE visible
25 Jan 7.1 19:58:02 10° WSW 20:03:06 27° NW 20:07:22 13° N visible
26 Jan 6.4 19:14:25 10° SW 19:20:07 42° NW 19:25:55 10° NNE visible
27 Jan 5.7 18:31:17 10° SW 18:37:16 69° WNW 18:43:24 10° NNE visible
27 Jan 7.9 20:18:11 10° WNW 20:21:01 13° NW 20:23:52 10° NNW visible
28 Jan 7.5 19:33:23 10° W 19:37:48 21° NW 19:42:16 10° N visible
29 Jan 7.0 18:49:24 10° WSW 18:54:44 32° NW 19:00:09 10° N visible
30 Jan 6.3 18:05:58 10° SW 18:11:49 50° WNW 18:17:46 10° NNE visible
31 Jan 7.7 19:09:02 10° W 19:12:35 16° NW 19:16:08 10° N visible
01 Feb 7.4 18:24:36 10° WSW 18:29:25 24° NW 18:34:16 10° N visible
03 Feb 7.9 18:45:16 10° WNW 18:47:24 12° NW 18:49:31 10° NNW visible
